VCP9011 EGKK-LFBO

Flight info

Callsign VCP9011
Flight time N/A
Altitude 23000
Route BOGNA L612 BENBO Y47 DRAKE/N0490F330 L151 SITET UN859 LGL/N0494F290 UN859 SOPIL DCT BALAN DCT EVPOK DCT NARAK
Aircraft A359/H-SDE2E3GHIJ3J4J5LM1ORWXY/LB1D1

Departure

Time 2026-04-17 13:13
Airport London Gatwick Airport (EGKK)

Arrival

Time N/A
Airport Toulouse-Blagnac Airport (LFBO)
Time Latitude Longitude Altitude Speed Heading
2026-04-17 12:47 51.15588 -0.16903 220 ft 0 kts 167°
2026-04-17 13:01 51.15603 -0.16909 218 ft 4 kts 167°
2026-04-17 13:01 51.15629 -0.16918 217 ft 4 kts 168°
2026-04-17 13:02 51.15653 -0.16918 216 ft 4 kts 217°
2026-04-17 13:02 51.15663 -0.16893 221 ft 2 kts 258°
2026-04-17 13:02 51.15669 -0.16853 215 ft 4 kts 258°
2026-04-17 13:02 51.15670 -0.16845 214 ft 0 kts 258°
2026-04-17 13:06 51.15663 -0.16888 214 ft 10 kts 257°
2026-04-17 13:07 51.15646 -0.17008 213 ft 12 kts 257°
2026-04-17 13:07 51.15626 -0.17151 215 ft 14 kts 257°
2026-04-17 13:07 51.15603 -0.17310 219 ft 6 kts 257°
2026-04-17 13:07 51.15601 -0.17320 218 ft 4 kts 257°
2026-04-17 13:08 51.15575 -0.17409 216 ft 12 kts 225°
2026-04-17 13:08 51.15497 -0.17419 213 ft 15 kts 169°
2026-04-17 13:08 51.15404 -0.17391 214 ft 11 kts 169°
2026-04-17 13:08 51.15380 -0.17383 218 ft 6 kts 169°
2026-04-17 13:09 51.15316 -0.17361 219 ft 13 kts 167°
2026-04-17 13:09 51.15220 -0.17287 221 ft 18 kts 146°
2026-04-17 13:09 51.15191 -0.17121 217 ft 17 kts 83°
2026-04-17 13:09 51.15212 -0.16947 210 ft 6 kts 77°
2026-04-17 13:10 51.15217 -0.16909 219 ft 0 kts 77°
2026-04-17 13:11 51.15223 -0.16867 216 ft 9 kts 82°
2026-04-17 13:11 51.15188 -0.16793 220 ft 10 kts 151°
2026-04-17 13:11 51.15126 -0.16824 220 ft 10 kts 237°
2026-04-17 13:11 51.15110 -0.16896 216 ft 0 kts 255°
2026-04-17 13:13 51.15072 -0.17151 221 ft 61 kts 258°
2026-04-17 13:13 51.14929 -0.18199 217 ft 131 kts 257°
2026-04-17 13:13 51.14703 -0.19784 719 ft 151 kts 252°
2026-04-17 13:13 51.14430 -0.21401 1645 ft 149 kts 254°
2026-04-17 13:14 51.14216 -0.23014 2375 ft 154 kts 254°
2026-04-17 13:14 51.13981 -0.24804 2621 ft 177 kts 254°
2026-04-17 13:14 51.13711 -0.26814 2964 ft 199 kts 254°
2026-04-17 13:14 51.13412 -0.29026 3706 ft 208 kts 255°
2026-04-17 13:15 51.13105 -0.31295 4460 ft 211 kts 255°
2026-04-17 13:15 51.12792 -0.33582 4901 ft 212 kts 255°
2026-04-17 13:15 51.12475 -0.35872 4988 ft 212 kts 255°
2026-04-17 13:15 51.12134 -0.38164 4989 ft 213 kts 251°
2026-04-17 13:16 51.11456 -0.40233 4990 ft 212 kts 230°
2026-04-17 13:16 51.10294 -0.41606 4990 ft 214 kts 205°
2026-04-17 13:16 51.08813 -0.42018 4997 ft 221 kts 184°
2026-04-17 13:16 51.07273 -0.41858 4996 ft 223 kts 179°
2026-04-17 13:17 51.05687 -0.41618 5183 ft 238 kts 179°
2026-04-17 13:17 51.03972 -0.41380 5751 ft 254 kts 179°
2026-04-17 13:17 51.02198 -0.41139 6744 ft 259 kts 179°
2026-04-17 13:17 51.00375 -0.40898 7661 ft 266 kts 179°
2026-04-17 13:18 50.98524 -0.40658 8695 ft 268 kts 179°
2026-04-17 13:18 50.96681 -0.40420 9751 ft 271 kts 180°
2026-04-17 13:18 50.94789 -0.40178 10735 ft 274 kts 180°
2026-04-17 13:18 50.92876 -0.39935 11699 ft 278 kts 180°
2026-04-17 13:19 50.90940 -0.39689 12664 ft 281 kts 180°
2026-04-17 13:19 50.88977 -0.39441 13615 ft 285 kts 181°
2026-04-17 13:19 50.86986 -0.39190 14477 ft 289 kts 181°
2026-04-17 13:19 50.84969 -0.38924 15306 ft 293 kts 180°
2026-04-17 13:20 50.82949 -0.38179 16110 ft 306 kts 163°
2026-04-17 13:20 50.81059 -0.36530 16961 ft 315 kts 153°
2026-04-17 13:20 50.79242 -0.34635 17742 ft 320 kts 153°
2026-04-17 13:20 50.77383 -0.32668 18552 ft 323 kts 153°
2026-04-17 13:21 50.75500 -0.30690 19269 ft 327 kts 153°
2026-04-17 13:21 50.73593 -0.28701 19970 ft 330 kts 153°
2026-04-17 13:21 50.71664 -0.26699 20697 ft 333 kts 153°
2026-04-17 13:21 50.69718 -0.24683 21378 ft 338 kts 154°
2026-04-17 13:22 50.67715 -0.22602 21761 ft 353 kts 153°
2026-04-17 13:22 50.65646 -0.20449 22044 ft 370 kts 153°
2026-04-17 13:22 50.63454 -0.18162 22310 ft 386 kts 153°
2026-04-17 13:22 50.61166 -0.15770 22577 ft 403 kts 152°
2026-04-17 13:23 50.58794 -0.13286 22976 ft 415 kts 152°
2026-04-17 13:23 50.56374 -0.10746 23612 ft 421 kts 152°
2026-04-17 13:23 50.53928 -0.08179 24231 ft 425 kts 152°
2026-04-17 13:23 50.51431 -0.05677 24854 ft 425 kts 156°
2026-04-17 13:24 50.48796 -0.03610 25481 ft 422 kts 163°
2026-04-17 13:24 50.46065 -0.02137 26104 ft 419 kts 171°
2026-04-17 13:24 50.43213 -0.01294 26710 ft 417 kts 179°
2026-04-17 13:24 50.40324 -0.01134 27243 ft 416 kts 187°
2026-04-17 13:25 50.37447 -0.01658 27810 ft 416 kts 194°
2026-04-17 13:25 50.34605 -0.02548 28445 ft 417 kts 195°
2026-04-17 13:25 50.31767 -0.03566 29048 ft 420 kts 197°
2026-04-17 13:25 50.28918 -0.04637 29604 ft 423 kts 197°
2026-04-17 13:26 50.26026 -0.05587 30140 ft 428 kts 192°
2026-04-17 13:26 50.23080 -0.06000 30598 ft 435 kts 185°
2026-04-17 13:26 50.20033 -0.05736 31011 ft 443 kts 176°
2026-04-17 13:26 50.16990 -0.04703 31392 ft 453 kts 167°
2026-04-17 13:27 50.14013 -0.02977 31772 ft 460 kts 162°
2026-04-17 13:27 50.11046 -0.01062 32152 ft 462 kts 164°
2026-04-17 13:27 50.08001 0.00516 32462 ft 463 kts 168°
2026-04-17 13:27 50.04900 0.01921 32779 ft 466 kts 169°
2026-04-17 13:28 50.01769 0.03249 33110 ft 468 kts 169°
2026-04-17 13:28 49.98668 0.04507 33213 ft 464 kts 170°
2026-04-17 13:28 49.92436 0.06955 33206 ft 461 kts 170°
2026-04-17 13:29 49.86202 0.09373 33206 ft 462 kts 170°
2026-04-17 13:29 49.79974 0.11796 33207 ft 462 kts 170°
2026-04-17 13:30 49.73781 0.14209 33201 ft 462 kts 170°
2026-04-17 13:30 49.67552 0.16633 33211 ft 462 kts 170°
2026-04-17 13:31 49.61328 0.19112 33211 ft 462 kts 169°
2026-04-17 13:31 49.55107 0.21641 33212 ft 462 kts 169°
2026-04-17 13:32 49.48928 0.24138 33209 ft 463 kts 169°
2026-04-17 13:32 49.42697 0.26636 33210 ft 463 kts 169°
2026-04-17 13:33 49.36460 0.29125 33210 ft 463 kts 169°
2026-04-17 13:33 49.30222 0.31610 33199 ft 463 kts 169°
2026-04-17 13:34 49.24038 0.34184 33205 ft 464 kts 168°
2026-04-17 13:34 49.17820 0.36834 33197 ft 464 kts 168°
2026-04-17 13:35 49.11602 0.39466 33197 ft 464 kts 168°
2026-04-17 13:35 49.05375 0.42080 33194 ft 464 kts 168°
2026-04-17 13:36 48.99189 0.44663 33186 ft 465 kts 168°
2026-04-17 13:36 48.92928 0.47270 33196 ft 468 kts 168°
2026-04-17 13:37 48.86646 0.49880 33196 ft 468 kts 168°
2026-04-17 13:37 48.80367 0.52483 33204 ft 468 kts 168°
2026-04-17 13:38 48.74123 0.55026 33202 ft 468 kts 168°
2026-04-17 13:38 48.67821 0.57474 33200 ft 467 kts 169°
2026-04-17 13:39 48.61522 0.59908 33201 ft 468 kts 168°
2026-04-17 13:39 48.55215 0.62357 33202 ft 468 kts 168°
2026-04-17 13:40 48.48954 0.64811 33205 ft 468 kts 168°
2026-04-17 13:40 48.42662 0.67377 33196 ft 469 kts 168°
2026-04-17 13:41 48.36366 0.69959 33206 ft 469 kts 168°
2026-04-17 13:41 48.30062 0.72522 33203 ft 469 kts 168°
2026-04-17 13:42 48.23760 0.75068 33198 ft 469 kts 168°
2026-04-17 13:42 48.17488 0.77550 33203 ft 470 kts 168°
2026-04-17 13:43 48.11161 0.80020 33198 ft 470 kts 168°
2026-04-17 13:43 48.04831 0.82490 33198 ft 470 kts 168°
2026-04-17 13:44 47.98510 0.84960 33183 ft 470 kts 168°
2026-04-17 13:44 47.92205 0.87418 33191 ft 473 kts 168°
2026-04-17 13:45 47.85836 0.89897 33193 ft 473 kts 168°
2026-04-17 13:45 47.79463 0.92376 33182 ft 473 kts 168°
2026-04-17 13:46 47.73078 0.94847 33193 ft 474 kts 168°
2026-04-17 13:46 47.66730 0.97294 33193 ft 475 kts 168°
2026-04-17 13:47 47.60334 0.99756 33186 ft 475 kts 168°
2026-04-17 13:47 47.53935 1.02213 33189 ft 476 kts 168°
2026-04-17 13:48 47.47520 1.04670 33189 ft 476 kts 168°
2026-04-17 13:48 47.41070 1.06259 33191 ft 471 kts 181°
2026-04-17 13:49 47.34519 1.06343 33185 ft 471 kts 184°
2026-04-17 13:49 47.27953 1.06157 33186 ft 472 kts 184°
2026-04-17 13:50 47.21380 1.05953 33188 ft 473 kts 184°
2026-04-17 13:50 47.14844 1.05783 33185 ft 473 kts 184°
2026-04-17 13:51 47.08247 1.05627 33185 ft 475 kts 184°
2026-04-17 13:51 47.01635 1.05474 33184 ft 475 kts 184°
2026-04-17 13:52 46.95032 1.05227 33178 ft 475 kts 185°
2026-04-17 13:52 46.88461 1.04916 33184 ft 476 kts 185°
2026-04-17 13:53 46.81837 1.04615 33179 ft 476 kts 185°
2026-04-17 13:53 46.75208 1.04328 33174 ft 476 kts 185°
2026-04-17 13:54 46.65315 1.03911 33172 ft 476 kts 185°
2026-04-17 13:55 46.55370 1.03492 33168 ft 477 kts 185°
2026-04-17 13:55 46.48720 1.04346 33177 ft 485 kts 173°
2026-04-17 13:56 46.42153 1.06386 33184 ft 487 kts 171°
2026-04-17 13:56 46.35563 1.08638 33184 ft 487 kts 170°
2026-04-17 13:57 46.28965 1.10885 33187 ft 488 kts 171°
2026-04-17 13:58 46.19042 1.14196 33185 ft 488 kts 171°
2026-04-17 13:58 46.09161 1.17463 33183 ft 488 kts 171°
2026-04-17 13:59 45.99215 1.20739 33183 ft 490 kts 171°
2026-04-17 14:00 45.92604 1.22911 33179 ft 491 kts 171°
2026-04-17 14:00 45.85940 1.25096 33185 ft 491 kts 171°
2026-04-17 14:01 45.79276 1.27275 33187 ft 491 kts 171°
2026-04-17 14:01 45.72610 1.29450 33184 ft 491 kts 171°
2026-04-17 14:02 45.65990 1.31604 33180 ft 491 kts 171°
2026-04-17 14:02 45.59324 1.33769 33180 ft 491 kts 171°
2026-04-17 14:03 45.52659 1.35927 33174 ft 491 kts 171°
2026-04-17 14:03 45.45982 1.38085 33172 ft 492 kts 171°
2026-04-17 14:04 45.39356 1.40219 33175 ft 492 kts 171°
2026-04-17 14:04 45.32679 1.42365 33171 ft 492 kts 171°
2026-04-17 14:05 45.26000 1.44507 33173 ft 492 kts 171°
2026-04-17 14:05 45.19328 1.46643 33183 ft 492 kts 171°
2026-04-17 14:05 45.16035 1.47695 33082 ft 492 kts 171°
2026-04-17 14:06 45.12667 1.48767 32819 ft 499 kts 171°
2026-04-17 14:06 45.09267 1.49849 32565 ft 502 kts 171°
2026-04-17 14:06 45.05855 1.50935 32314 ft 503 kts 171°
2026-04-17 14:06 45.02442 1.52021 32048 ft 504 kts 171°
2026-04-17 14:07 44.99020 1.53108 31773 ft 504 kts 171°
2026-04-17 14:07 44.95589 1.54196 31512 ft 506 kts 171°
2026-04-17 14:07 44.92200 1.55270 31261 ft 507 kts 171°
2026-04-17 14:07 44.88752 1.56360 31016 ft 508 kts 171°
2026-04-17 14:08 44.85305 1.57449 30773 ft 508 kts 171°
2026-04-17 14:08 44.81850 1.58539 30530 ft 509 kts 171°
2026-04-17 14:08 44.78409 1.59624 29870 ft 506 kts 171°
2026-04-17 14:08 44.74972 1.60705 28839 ft 507 kts 170°
2026-04-17 14:09 44.71552 1.61781 28150 ft 500 kts 170°
2026-04-17 14:09 44.68179 1.62843 27476 ft 494 kts 170°
2026-04-17 14:09 44.64847 1.63889 26778 ft 489 kts 170°
2026-04-17 14:09 44.61584 1.64910 26089 ft 484 kts 170°
2026-04-17 14:10 44.58306 1.65936 25395 ft 480 kts 170°
2026-04-17 14:10 44.55062 1.66950 24726 ft 476 kts 170°
2026-04-17 14:10 44.51843 1.67954 24047 ft 472 kts 170°
2026-04-17 14:10 44.48650 1.68949 23309 ft 468 kts 170°
2026-04-17 14:11 44.45486 1.69935 22611 ft 462 kts 169°
2026-04-17 14:11 44.42368 1.70906 21933 ft 456 kts 169°
2026-04-17 14:11 44.39330 1.71851 21270 ft 450 kts 169°
2026-04-17 14:11 44.36292 1.72793 20613 ft 445 kts 169°
2026-04-17 14:12 44.33277 1.73654 19945 ft 440 kts 174°
2026-04-17 14:12 44.30252 1.73727 19275 ft 431 kts 190°
2026-04-17 14:12 44.27424 1.72583 18838 ft 420 kts 207°
2026-04-17 14:13 44.22496 1.68230 18283 ft 417 kts 217°
2026-04-17 14:13 44.20169 1.65980 17713 ft 409 kts 217°
2026-04-17 14:13 44.17846 1.63741 17068 ft 404 kts 217°
2026-04-17 14:13 44.15549 1.61537 16414 ft 399 kts 217°
2026-04-17 14:14 44.13273 1.59359 15761 ft 395 kts 217°
2026-04-17 14:14 44.11018 1.57205 15120 ft 392 kts 217°
2026-04-17 14:14 44.08779 1.55072 14475 ft 389 kts 217°
2026-04-17 14:14 44.06553 1.52952 13808 ft 386 kts 217°
2026-04-17 14:15 44.04348 1.50856 13120 ft 383 kts 217°
2026-04-17 14:15 44.02192 1.48808 12485 ft 378 kts 217°
2026-04-17 14:15 44.00028 1.46763 11846 ft 374 kts 216°
2026-04-17 14:15 43.97728 1.45068 11092 ft 377 kts 201°
2026-04-17 14:16 43.95212 1.44222 10786 ft 366 kts 192°
2026-04-17 14:16 43.92797 1.43640 10477 ft 339 kts 191°
2026-04-17 14:16 43.90549 1.43121 10158 ft 315 kts 191°
2026-04-17 14:16 43.88436 1.42630 9599 ft 303 kts 191°
2026-04-17 14:17 43.86383 1.42144 8912 ft 297 kts 191°
2026-04-17 14:17 43.84385 1.41740 8380 ft 294 kts 186°
2026-04-17 14:17 43.82359 1.42083 8180 ft 296 kts 161°
2026-04-17 14:17 43.80574 1.43480 8156 ft 296 kts 144°
2026-04-17 14:18 43.78942 1.45217 8159 ft 296 kts 142°
2026-04-17 14:18 43.77332 1.46983 8156 ft 295 kts 142°
2026-04-17 14:18 43.75719 1.48743 8156 ft 295 kts 142°
2026-04-17 14:18 43.74092 1.50508 8029 ft 298 kts 142°
2026-04-17 14:19 43.72464 1.52269 7656 ft 295 kts 143°
2026-04-17 14:19 43.70858 1.54006 7268 ft 292 kts 142°
2026-04-17 14:19 43.69275 1.55708 6853 ft 292 kts 143°
2026-04-17 14:19 43.67682 1.57421 6438 ft 290 kts 143°
2026-04-17 14:20 43.66098 1.59118 6049 ft 287 kts 143°
2026-04-17 14:20 43.64527 1.60794 5789 ft 280 kts 143°
2026-04-17 14:20 43.63001 1.62366 5626 ft 268 kts 148°
2026-04-17 14:20 43.61318 1.63261 5474 ft 254 kts 175°
2026-04-17 14:21 43.59609 1.63223 5345 ft 240 kts 188°
2026-04-17 14:21 43.57994 1.62960 5141 ft 234 kts 190°
2026-04-17 14:21 43.56391 1.62675 4920 ft 231 kts 190°
2026-04-17 14:21 43.54794 1.62394 4702 ft 231 kts 190°
2026-04-17 14:22 43.53200 1.62118 4480 ft 231 kts 189°
2026-04-17 14:22 43.51605 1.61847 4257 ft 231 kts 188°
2026-04-17 14:22 43.50027 1.61488 4023 ft 229 kts 198°
2026-04-17 14:22 43.48646 1.60460 3793 ft 225 kts 225°